{"data":{"norad_id":62994,"intl_designator":"2025-031P","name":"STARLINK-32899","alt_names":[],"object_type":"PAYLOAD","status":"ACTIVE","operator":null,"country":"US","launch_date":"2025-02-11","launch_site_code":"AFETR","launch_vehicle":null,"mission":null,"orbit_class":"UNKNOWN","rcs_meters":null,"size_class":null,"mass_kg":null,"dimensions":null,"purposes":["comms"],"wikipedia_slug":null,"has_3d_model":false,"image_url":null,"decayed_at":null,"tle_current":{"epoch":"2026-09-21T00:25:31.758816Z","epoch_age_seconds":120485,"freshness":"FRESH","line1":"1 62994U 25031P   26264.01772869  .00011690  00000+0  43335-3 0  9998","line2":"2 62994  43.0037 120.6129 0002849 284.9498  75.1038 15.27602213 90964","mean_motion":15.27602213,"eccentricity":0.0002849,"inclination_deg":43.0037,"raan_deg":120.6129,"arg_perigee_deg":284.9498,"mean_anomaly_deg":75.1038,"bstar":0.00043335,"rev_number":9096,"period_min":94.265377972453,"perigee_km":481.02785016332,"apogee_km":484.93731610179,"semimajor_km":6861.1195831326,"source":"CELESTRAK","updated_at":"2026-09-22T09:00:49.719192Z"}}}